GUY6655 EGLC-EGGP

Flight info

Callsign GUY6655
Flight time N/A
Altitude 2000
Route EGLC TO EGGP
Aircraft D62/M-DGVW/C

Departure

Time 2026-04-29 14:32
Airport London City Airport (EGLC)

Arrival

Time N/A
Airport Liverpool John Lennon Airport (EGGP)
Time Latitude Longitude Altitude Speed Heading
2026-04-29 14:22 51.50411 0.05480 16 ft 0 kts 328°
2026-04-29 14:23 51.50418 0.05473 16 ft 3 kts 316°
2026-04-29 14:24 51.50434 0.05420 16 ft 7 kts 281°
2026-04-29 14:24 51.50442 0.05315 16 ft 11 kts 275°
2026-04-29 14:24 51.50450 0.05114 16 ft 17 kts 272°
2026-04-29 14:24 51.50460 0.04938 16 ft 14 kts 270°
2026-04-29 14:25 51.50457 0.04798 16 ft 11 kts 272°
2026-04-29 14:25 51.50463 0.04664 16 ft 13 kts 279°
2026-04-29 14:25 51.50486 0.04543 16 ft 10 kts 324°
2026-04-29 14:25 51.50539 0.04536 16 ft 7 kts 29°
2026-04-29 14:26 51.50552 0.04581 16 ft 2 kts 86°
2026-04-29 14:26 51.50552 0.04587 16 ft 1 kts 90°
2026-04-29 14:26 51.50546 0.04794 17 ft 39 kts 91°
2026-04-29 14:26 51.50527 0.05400 17 ft 68 kts 89°
2026-04-29 14:27 51.50525 0.05823 14 ft 0 kts 88°
2026-04-29 14:28 51.50490 0.06562 16 ft 0 kts 272°
2026-04-29 14:29 51.50494 0.06476 16 ft 0 kts 273°
2026-04-29 14:31 51.50500 0.06282 16 ft 42 kts 275°
2026-04-29 14:31 51.50526 0.05605 17 ft 78 kts 270°
2026-04-29 14:32 51.50438 0.04648 77 ft 93 kts 232°
2026-04-29 14:32 51.49984 0.03911 290 ft 98 kts 206°
2026-04-29 14:32 51.49378 0.03255 464 ft 113 kts 215°
2026-04-29 14:32 51.48889 0.02244 626 ft 120 kts 233°
2026-04-29 14:33 51.48508 0.01018 796 ft 124 kts 237°
2026-04-29 14:33 51.48194 -0.00283 923 ft 130 kts 259°
2026-04-29 14:33 51.48317 -0.01711 1072 ft 126 kts 301°
2026-04-29 14:33 51.48844 -0.02670 1249 ft 107 kts 348°
2026-04-29 14:34 51.49517 -0.03025 1452 ft 100 kts
2026-04-29 14:34 51.50178 -0.03284 1652 ft 100 kts
2026-04-29 14:34 51.50848 -0.03533 1861 ft 99 kts
2026-04-29 14:34 51.51510 -0.03778 2075 ft 96 kts
2026-04-29 14:35 51.52181 -0.04028 2185 ft 105 kts
2026-04-29 14:35 51.52976 -0.04285 2121 ft 126 kts
2026-04-29 14:35 51.53889 -0.04601 2043 ft 141 kts
2026-04-29 14:35 51.54867 -0.04947 2002 ft 146 kts 359°
2026-04-29 14:36 51.55867 -0.05345 2004 ft 150 kts 354°
2026-04-29 14:36 51.56849 -0.05958 2000 ft 155 kts 346°
2026-04-29 14:36 51.57806 -0.06792 2000 ft 158 kts 340°
2026-04-29 14:36 51.58738 -0.07776 1999 ft 161 kts 336°
2026-04-29 14:37 51.59642 -0.08854 1998 ft 163 kts 333°
2026-04-29 14:37 51.60531 -0.10005 2005 ft 165 kts 331°
2026-04-29 14:37 51.61406 -0.11209 2002 ft 165 kts 330°
2026-04-29 14:37 51.62273 -0.12433 1997 ft 167 kts 329°
2026-04-29 14:38 51.63128 -0.13676 2000 ft 166 kts 328°
2026-04-29 14:38 51.63972 -0.14924 1996 ft 164 kts 328°
2026-04-29 14:38 51.64818 -0.16173 2001 ft 164 kts 328°
2026-04-29 14:38 51.65661 -0.17436 2006 ft 165 kts 327°
2026-04-29 14:39 51.66495 -0.18687 2013 ft 165 kts 327°
2026-04-29 14:39 51.67345 -0.19965 2007 ft 167 kts 328°
2026-04-29 14:39 51.68193 -0.21243 2002 ft 167 kts 327°
2026-04-29 14:39 51.69028 -0.22504 2006 ft 166 kts 326°
2026-04-29 14:40 51.69873 -0.23784 2008 ft 166 kts 327°
2026-04-29 14:40 51.70726 -0.25071 2000 ft 166 kts 326°
2026-04-29 14:40 51.71569 -0.26348 2005 ft 167 kts 326°
2026-04-29 14:40 51.72414 -0.27630 2007 ft 167 kts 326°
2026-04-29 14:41 51.73273 -0.28931 2014 ft 167 kts 325°
2026-04-29 14:41 51.74117 -0.30212 2010 ft 168 kts 326°
2026-04-29 14:41 51.74974 -0.31515 2004 ft 168 kts 326°
2026-04-29 14:41 51.75254 -0.31939 2004 ft 168 kts 326°